EW0607 Weather Reports


Display with metric or nautical units.
time (UTC)temp
F
wind
direction
speed
MPH
gust
MPH
rain 1hr
in
rain 24hr
in
rain mn
in
humidity
%
barometer
mb
20260831110602 77 360 0.0 0.0 0.00 0.00 0.00 32 1002.3
20260831110038 77 360 0.0 0.0 0.00 0.00 0.00 32 1002.2
20260831105520 78 360 0.0 0.0 0.00 0.00 0.00 32 1002.0
20260831105100 78 360 1.0 0.0 0.00 0.00 0.00 32 1001.9
20260831104542 79 360 1.0 0.0 0.00 0.00 0.00 32 1001.7
20260831104023 79 360 1.0 0.0 0.00 0.00 0.00 32 1001.6
20260831103507 79 360 1.0 0.0 0.00 0.00 0.00 32 1001.6
20260831103050 79 360 0.0 0.0 0.00 0.00 0.00 32 1001.6
20260831102531 79 360 0.0 0.0 0.00 0.00 0.00 32 1001.7
20260831102012 80 360 1.0 0.0 0.00 0.00 0.00 32 1001.5
20260831101603 80 360 0.0 0.0 0.00 0.00 0.00 32 1001.5
20260831101040 78 360 0.0 0.0 0.00 0.00 0.00 34 1001.6
20260831100520 77 360 0.0 0.0 0.00 0.00 0.00 35 1001.7
20260831100117 76 360 0.0 0.0 0.00 0.00 0.00 34 1001.8
20260831095542 75 360 0.0 0.0 0.00 0.00 0.00 31 1002.0
20260831095021 76 360 0.0 0.0 0.00 0.00 0.00 30 1002.1
20260831094603 77 360 0.0 0.0 0.00 0.00 0.00 34 1001.9
20260831094046 77 360 0.0 0.0 0.00 0.00 0.00 29 1002.0
20260831093525 77 360 0.0 0.0 0.00 0.00 0.00 33 1001.8
20260831093004 76 360 0.0 0.0 0.00 0.00 0.00 30 1001.9
20260831092549 76 360 0.0 0.0 0.00 0.00 0.00 29 1001.9
20260831092029 76 360 0.0 0.0 0.00 0.00 0.00 28 1001.8
20260831091509 77 360 0.0 0.0 0.00 0.00 0.00 28 1001.7
20260831091055 77 360 0.0 0.0 0.00 0.00 0.00 28 1001.8
20260831090536 78 360 0.0 0.0 0.00 0.00 0.00 28 1001.6
20260831090019 79 360 0.0 0.0 0.00 0.00 0.00 27 1001.5
20260831085501 79 360 0.0 0.0 0.00 0.00 0.00 28 1001.4
20260831085044 79 360 0.0 0.0 0.00 0.00 0.00 28 1001.4
20260831084526 78 360 0.0 0.0 0.00 0.00 0.00 27 1001.6
20260831084001 77 360 0.0 0.0 0.00 0.00 0.00 25 1001.6
20260831083546 76 360 0.0 0.0 0.00 0.00 0.00 25 1001.6
20260831083028 76 360 0.0 0.0 0.00 0.00 0.00 25 1001.6
20260831082508 76 360 0.0 0.0 0.00 0.00 0.00 25 1001.7
20260831082051 76 360 0.0 0.0 0.00 0.00 0.00 25 1001.7
20260831081540 76 360 0.0 0.0 0.00 0.00 0.00 25 1001.8
20260831081014 79 360 0.0 0.0 0.00 0.00 0.00 23 1001.6
20260831080600 80 360 0.0 0.0 0.00 0.00 0.00 23 1001.6
20260831080041 80 360 0.0 0.0 0.00 0.00 0.00 23 1001.5
20260831075517 81 360 1.0 0.0 0.00 0.00 0.00 23 1001.4
20260831075100 81 360 1.0 0.0 0.00 0.00 0.00 23 1001.4
20260831074538 81 360 1.0 0.0 0.00 0.00 0.00 23 1001.4
20260831074016 80 360 1.0 0.0 0.00 0.00 0.00 23 1001.3
20260831073559 80 360 1.0 0.0 0.00 0.00 0.00 23 1001.4
20260831073039 79 360 1.0 0.0 0.00 0.00 0.00 23 1001.4
20260831072521 79 360 1.0 0.0 0.00 0.00 0.00 23 1001.4
20260831072105 80 360 1.0 0.0 0.00 0.00 0.00 23 1001.4
20260831071541 79 360 1.0 0.0 0.00 0.00 0.00 23 1001.5
20260831071020 79 360 1.0 0.0 0.00 0.00 0.00 22 1001.4
20260831070501 79 360 1.0 0.0 0.00 0.00 0.00 22 1001.5
20260831070054 79 360 1.0 0.0 0.00 0.00 0.00 22 1001.5
20260831065526 80 360 1.0 0.0 0.00 0.00 0.00 21 1001.3
20260831065003 82 360 1.0 0.0 0.00 0.00 0.00 21 1001.1
20260831064549 82 360 1.0 0.0 0.00 0.00 0.00 21 1001.1
20260831064027 82 360 0.0 0.0 0.00 0.00 0.00 21 1000.9
20260831063507 83 360 0.0 0.0 0.00 0.00 0.00 22 1000.8
20260831063054 83 360 1.0 0.0 0.00 0.00 0.00 22 1000.8
20260831062536 84 360 1.0 0.0 0.00 0.00 0.00 21 1000.7
20260831062018 84 360 2.0 0.0 0.00 0.00 0.00 22 1000.5
20260831061607 85 360 2.0 0.0 0.00 0.00 0.00 22 1000.4
20260831061045 84 360 1.0 0.0 0.00 0.00 0.00 22 1000.3
20260831060523 84 360 0.0 0.0 0.00 0.00 0.00 22 1000.4
20260831060004 84 360 0.0 0.0 0.00 0.00 0.00 22 1000.5
20260831055550 84 360 1.0 0.0 0.00 0.00 0.00 22 1000.8
20260831055033 84 360 2.0 0.0 0.00 0.00 0.00 22 1000.7
20260831054515 83 360 3.0 0.0 0.00 0.00 0.00 21 1000.6
20260831054058 84 360 3.0 0.0 0.00 0.00 0.00 21 1000.7
20260831053541 84 360 3.0 0.0 0.00 0.00 0.00 20 1000.6
20260831053020 85 360 2.0 0.0 0.00 0.00 0.00 20 1000.7
20260831052605 85 360 2.0 0.0 0.00 0.00 0.00 20 1000.7
20260831052047 85 360 2.0 0.0 0.00 0.00 0.00 20 1000.7
20260831051534 85 360 1.0 0.0 0.00 0.00 0.00 20 1000.8
20260831051002 84 360 1.0 0.0 0.00 0.00 0.00 20 1000.8
20260831050549 84 360 2.0 0.0 0.00 0.00 0.00 20 1000.8
20260831050028 83 360 1.0 0.0 0.00 0.00 0.00 21 1001.0
20260831045515 82 360 1.0 0.0 0.00 0.00 0.00 21 1001.1
20260831045057 82 360 2.0 0.0 0.00 0.00 0.00 20 1001.1
20260831044541 82 360 2.0 0.0 0.00 0.00 0.00 20 1001.2
20260831044021 83 360 2.0 0.0 0.00 0.00 0.00 20 1001.2
20260831043603 83 360 2.0 0.0 0.00 0.00 0.00 19 1001.0
20260831043045 84 360 1.0 0.0 0.00 0.00 0.00 19 1001.1
20260831042528 85 360 1.0 0.0 0.00 0.00 0.00 18 1000.9
20260831042008 86 360 1.0 0.0 0.00 0.00 0.00 19 1000.9
20260831041558 86 360 1.0 0.0 0.00 0.00 0.00 18 1001.0
20260831041034 88 360 1.0 0.0 0.00 0.00 0.00 18 1000.7
20260831040515 88 360 1.0 0.0 0.00 0.00 0.00 17 1000.8
20260831040059 88 360 0.0 0.0 0.00 0.00 0.00 17 1000.7
20260831035541 88 360 1.0 0.0 0.00 0.00 0.00 17 1000.9
20260831035019 88 360 1.0 0.0 0.00 0.00 0.00 17 1000.7
20260831034604 87 360 1.0 0.0 0.00 0.00 0.00 17 1000.7
20260831034044 85 360 2.0 0.0 0.00 0.00 0.00 18 1000.7
20260831033521 84 360 2.0 0.0 0.00 0.00 0.00 19 1000.8
20260831033112 84 360 2.0 0.0 0.00 0.00 0.00 19 1000.6
20260831032550 84 360 2.0 0.0 0.00 0.00 0.00 19 1000.4
20260831032026 86 360 1.0 0.0 0.00 0.00 0.00 19 1000.3
20260831031514 87 360 1.0 0.0 0.00 0.00 0.00 19 1000.1
20260831031053 89 360 1.0 0.0 0.00 0.00 0.00 19 999.9
20260831030535 89 360 1.0 0.0 0.00 0.00 0.00 19 999.8
20260831030015 89 360 1.0 0.0 0.00 0.00 0.00 18 999.8
20260831025558 90 360 1.0 0.0 0.00 0.00 0.00 18 1000.0
20260831025038 90 360 1.0 0.0 0.00 0.00 0.00 18 999.8
20260831024517 90 360 1.0 0.0 0.00 0.00 0.00 18 999.8
20260831024003 90 360 1.0 0.0 0.00 0.00 0.00 18 999.8
20260831023545 91 360 1.0 0.0 0.00 0.00 0.00 18 999.8
20260831023024 91 360 1.0 0.0 0.00 0.00 0.00 18 999.8
20260831022503 91 360 0.0 0.0 0.00 0.00 0.00 18 999.7
20260831022047 91 360 1.0 0.0 0.00 0.00 0.00 17 999.7
20260831021527 92 360 1.0 0.0 0.00 0.00 0.00 17 999.6
20260831021009 92 360 1.0 0.0 0.00 0.00 0.00 17 999.7
20260831020549 92 360 0.0 0.0 0.00 0.00 0.00 17 999.5
20260831020031 92 360 0.0 0.0 0.00 0.00 0.00 17 999.5
20260831015512 92 360 1.0 0.0 0.00 0.00 0.00 17 999.8
20260831015059 92 360 1.0 0.0 0.00 0.00 0.00 17 999.8
20260831014539 93 360 0.0 0.0 0.00 0.00 0.00 17 999.8
20260831014018 93 360 0.0 0.0 0.00 0.00 0.00 17 999.8
20260831013603 93 360 0.0 0.0 0.00 0.00 0.00 17 999.9
20260831013042 93 360 0.0 0.0 0.00 0.00 0.00 17 999.9
20260831012520 94 360 0.0 0.0 0.00 0.00 0.00 17 999.9
20260831012103 94 360 1.0 0.0 0.00 0.00 0.00 17 999.9
20260831011545 94 360 1.0 0.0 0.00 0.00 0.00 16 999.8
20260831011021 94 360 1.0 0.0 0.00 0.00 0.00 17 999.8
20260831010501 94 360 1.0 0.0 0.00 0.00 0.00 16 999.8
20260831010045 94 360 2.0 0.0 0.00 0.00 0.00 16 999.8
20260831005524 94 360 2.0 0.0 0.00 0.00 0.00 17 999.8
20260831005004 94 360 3.0 0.0 0.00 0.00 0.00 17 999.9
20260831004548 94 360 2.0 0.0 0.00 0.00 0.00 17 999.9
20260831004026 95 360 2.0 0.0 0.00 0.00 0.00 17 1000.0
20260831003506 95 232 2.0 0.0 0.00 0.00 0.00 17 1000.0
20260831003053 95 360 1.0 0.0 0.00 0.00 0.00 17 999.9
20260831002534 95 236 2.0 0.0 0.00 0.00 0.00 17 1000.0
20260831002018 95 209 2.0 0.0 0.00 0.00 0.00 17 1000.0
20260831001602 95 246 2.0 0.0 0.00 0.00 0.00 16 999.9
20260831001043 95 234 2.0 0.0 0.00 0.00 0.00 16 999.9
20260831000520 96 314 2.0 0.0 0.00 0.00 0.00 16 1000.0
20260831000113 96 360 2.0 0.0 0.00 0.00 0.00 16 999.9
20260830235542 96 285 2.0 0.0 0.00 0.00 0.00 16 1000.0
20260830235023 96 360 2.0 0.0 0.00 0.00 0.00 17 1000.0
20260830234504 96 360 4.0 0.0 0.00 0.00 0.00 16 1000.2
20260830234051 96 360 3.0 0.0 0.00 0.00 0.00 16 1000.3
20260830233533 96 360 3.0 0.0 0.00 0.00 0.00 17 1000.4
20260830233016 95 360 3.0 0.0 0.00 0.00 0.00 17 1000.4
20260830232604 95 360 2.0 0.0 0.00 0.00 0.00 17 1000.5
20260830232042 96 360 2.0 0.0 0.00 0.00 0.00 16 1000.5
20260830231524 96 244 3.0 0.0 0.00 0.00 0.00 17 1000.5
20260830231004 95 219 3.0 0.0 0.00 0.00 0.00 16 1000.6
20260830230550 95 231 3.0 0.0 0.00 0.00 0.00 17 1000.5
20260830230032 95 284 4.0 0.0 0.00 0.00 0.00 17 1000.6
20260830225509 95 270 3.0 0.0 0.00 0.00 0.00 16 1000.6
20260830225053 95 360 4.0 0.0 0.00 0.00 0.00 17 1000.7
20260830224535 95 360 5.0 0.0 0.00 0.00 0.00 16 1000.7
20260830224017 95 360 4.0 0.0 0.00 0.00 0.00 17 1000.7
20260830223558 95 360 4.0 0.0 0.00 0.00 0.00 17 1000.8
20260830223041 95 360 4.0 0.0 0.00 0.00 0.00 17 1000.9
20260830222519 95 360 3.0 0.0 0.00 0.00 0.00 17 1001.0
20260830222001 94 360 3.0 0.0 0.00 0.00 0.00 17 1001.1
20260830221544 94 360 3.0 0.0 0.00 0.00 0.00 17 1001.0
20260830221023 94 360 3.0 0.0 0.00 0.00 0.00 17 1001.0
20260830220502 94 360 3.0 0.0 0.00 0.00 0.00 17 1001.0
20260830220049 94 360 3.0 0.0 0.00 0.00 0.00 17 1001.1
20260830215528 94 360 3.0 0.0 0.00 0.00 0.00 17 1001.1
20260830215006 94 360 3.0 0.0 0.00 0.00 0.00 17 1001.2
20260830214550 95 247 3.0 0.0 0.00 0.00 0.00 17 1001.4
20260830214029 95 219 3.0 0.0 0.00 0.00 0.00 17 1001.3
20260830213508 95 265 4.0 0.0 0.00 0.00 0.00 16 1001.5
20260830213052 95 288 3.0 0.0 0.00 0.00 0.00 17 1001.5
20260830212537 95 281 2.0 0.0 0.00 0.00 0.00 16 1001.5
20260830212016 95 304 3.0 0.0 0.00 0.00 0.00 16 1001.6
20260830211624 95 244 3.0 0.0 0.00 0.00 0.00 16 1001.7
20260830211041 95 230 2.0 0.0 0.00 0.00 0.00 16 1001.6
20260830210519 96 5 2.0 0.0 0.00 0.00 0.00 16 1001.7
20260830210112 96 267 2.0 0.0 0.00 0.00 0.00 15 1001.7
20260830205541 96 341 2.0 0.0 0.00 0.00 0.00 15 1001.8
20260830205021 96 319 2.0 0.0 0.00 0.00 0.00 16 1001.7
20260830204501 96 334 2.0 0.0 0.00 0.00 0.00 16 1001.7
20260830204044 96 331 1.0 0.0 0.00 0.00 0.00 16 1001.8
20260830203524 96 221 1.0 0.0 0.00 0.00 0.00 16 1001.9
20260830203002 96 324 2.0 0.0 0.00 0.00 0.00 16 1001.9
20260830202546 96 360 2.0 0.0 0.00 0.00 0.00 16 1002.0
20260830202025 97 360 2.0 0.0 0.00 0.00 0.00 16 1002.0
20260830201505 97 215 2.0 0.0 0.00 0.00 0.00 16 1001.9
20260830201050 97 44 2.0 0.0 0.00 0.00 0.00 16 1001.9
20260830200530 97 247 2.0 0.0 0.00 0.00 0.00 16 1001.8
20260830200011 98 53 2.0 0.0 0.00 0.00 0.00 16 1001.7
20260830195553 98 138 2.0 0.0 0.00 0.00 0.00 16 1001.6
20260830195035 98 132 2.0 0.0 0.00 0.00 0.00 15 1001.6
20260830194514 99 249 2.0 0.0 0.00 0.00 0.00 15 1001.7
20260830194100 99 80 2.0 0.0 0.00 0.00 0.00 15 1001.7
20260830193543 99 240 2.0 0.0 0.00 0.00 0.00 15 1001.7
20260830193018 101 68 2.0 0.0 0.00 0.00 0.00 15 1001.7
20260830192600 99 241 2.0 0.0 0.00 0.00 0.00 15 1001.7
20260830192048 99 82 2.0 0.0 0.00 0.00 0.00 15 1001.7
20260830191531 100 92 2.0 0.0 0.00 0.00 0.00 15 1001.8
20260830191011 100 335 2.0 0.0 0.00 0.00 0.00 14 1001.8
20260830190556 100 281 2.0 0.0 0.00 0.00 0.00 14 1001.7
20260830190037 100 50 2.0 0.0 0.00 0.00 0.00 15 1001.8
20260830185513 101 78 2.0 0.0 0.00 0.00 0.00 14 1001.5
20260830185056 101 56 2.0 0.0 0.00 0.00 0.00 15 1001.8
20260830184535 100 337 2.0 0.0 0.00 0.00 0.00 14 1001.7
20260830184014 101 317 2.0 0.0 0.00 0.00 0.00 15 1001.7
20260830183556 100 261 2.0 0.0 0.00 0.00 0.00 15 1001.7
20260830183043 100 333 2.0 0.0 0.00 0.00 0.00 14 1001.8
20260830182523 100 71 2.0 0.0 0.00 0.00 0.00 15 1001.8
20260830182102 99 47 2.0 0.0 0.00 0.00 0.00 15 1001.8
20260830181544 99 178 2.0 0.0 0.00 0.00 0.00 15 1002.0
20260830181025 98 95 2.0 0.0 0.00 0.00 0.00 15 1002.0
20260830180601 98 96 2.0 0.0 0.00 0.00 0.00 15 1002.1
20260830180041 97 141 3.0 0.0 0.00 0.00 0.00 16 1002.1
20260830175525 96 108 2.0 0.0 0.00 0.00 0.00 17 1002.1
20260830175003 98 39 2.0 0.0 0.00 0.00 0.00 16 1002.1
20260830174554 96 195 2.0 0.0 0.00 0.00 0.00 16 1002.4
20260830174031 96 25 2.0 0.0 0.00 0.00 0.00 16 1002.3
20260830173514 97 261 2.0 0.0 0.00 0.00 0.00 16 1001.9
20260830173117 97 34 2.0 0.0 0.00 0.00 0.00 16 1001.9
20260830172541 97 87 2.0 0.0 0.00 0.00 0.00 16 1001.9
20260830172023 96 111 2.0 0.0 0.00 0.00 0.00 16 1001.9
20260830171502 96 182 2.0 0.0 0.00 0.00 0.00 16 1001.9
20260830171044 96 292 2.0 0.0 0.00 0.00 0.00 16 1001.8
20260830170525 97 268 2.0 0.0 0.00 0.00 0.00 16 1001.8
20260830170005 96 158 2.0 0.0 0.00 0.00 0.00 16 1001.9
20260830165543 96 138 2.0 0.0 0.00 0.00 0.00 16 1001.7
20260830165024 94 317 2.0 0.0 0.00 0.00 0.00 17 1001.8
20260830164505 93 360 2.0 0.0 0.00 0.00 0.00 18 1001.9
20260830164051 93 246 2.0 0.0 0.00 0.00 0.00 17 1001.9
20260830163530 93 5 2.0 0.0 0.00 0.00 0.00 18 1001.9
20260830163009 95 334 2.0 0.0 0.00 0.00 0.00 17 1001.9
20260830162553 94 273 2.0 0.0 0.00 0.00 0.00 17 1001.9
20260830162030 94 253 2.0 0.0 0.00 0.00 0.00 18 1001.9
20260830161515 93 159 1.0 0.0 0.00 0.00 0.00 18 1001.9
20260830161056 93 287 1.0 0.0 0.00 0.00 0.00 18 1001.9
20260830160540 93 309 2.0 0.0 0.00 0.00 0.00 18 1001.9
20260830160024 93 334 2.0 0.0 0.00 0.00 0.00 19 1002.0
20260830155601 93 191 1.0 0.0 0.00 0.00 0.00 19 1001.7
20260830155043 92 202 1.0 0.0 0.00 0.00 0.00 19 1001.7
20260830154519 91 186 1.0 0.0 0.00 0.00 0.00 20 1002.0
20260830154101 91 360 1.0 0.0 0.00 0.00 0.00 19 1002.1
20260830153540 91 360 1.0 0.0 0.00 0.00 0.00 20 1002.1
20260830153027 91 360 1.0 0.0 0.00 0.00 0.00 19 1002.1
20260830152603 91 360 3.0 0.0 0.00 0.00 0.00 21 1002.1
20260830152044 90 360 4.0 0.0 0.00 0.00 0.00 20 1002.1
20260830151523 89 360 4.0 0.0 0.00 0.00 0.00 21 1002.2
20260830151105 89 360 4.0 0.0 0.00 0.00 0.00 21 1002.3
20260830150543 88 360 3.0 0.0 0.00 0.00 0.00 21 1002.1
20260830150021 88 360 3.0 0.0 0.00 0.00 0.00 22 1002.1
20260830145605 88 360 3.0 0.0 0.00 0.00 0.00 22 1001.8
20260830145049 88 360 3.0 0.0 0.00 0.00 0.00 21 1001.9
20260830144531 88 360 2.0 0.0 0.00 0.00 0.00 23 1002.0
20260830144011 87 360 2.0 0.0 0.00 0.00 0.00 23 1002.0
20260830143551 87 360 2.0 0.0 0.00 0.00 0.00 23 1002.0
20260830143031 87 360 2.0 0.0 0.00 0.00 0.00 23 1002.0
20260830142506 87 360 3.0 0.0 0.00 0.00 0.00 24 1002.0
20260830142053 87 360 3.0 0.0 0.00 0.00 0.00 24 1002.0
20260830141529 86 360 4.0 0.0 0.00 0.00 0.00 25 1002.0
20260830141007 86 121 3.0 0.0 0.00 0.00 0.00 26 1002.0
20260830140551 85 99 3.0 0.0 0.00 0.00 0.00 26 1002.1
20260830140030 85 101 1.0 0.0 0.00 0.00 0.00 26 1001.9
20260830135509 84 92 1.0 0.0 0.00 0.00 0.00 27 1002.0
20260830135051 85 114 2.0 0.0 0.00 0.00 0.00 27 1001.8
20260830134529 85 111 3.0 0.0 0.00 0.00 0.00 27 1001.9
20260830134005 85 103 3.0 0.0 0.00 0.00 0.00 27 1001.7
20260830133551 85 83 3.0 0.0 0.00 0.00 0.00 27 1001.6
20260830133037 85 108 3.0 0.0 0.00 0.00 0.00 27 1001.5
20260830132516 84 98 3.0 0.0 0.00 0.00 0.00 28 1001.5
20260830132107 85 78 3.0 0.0 0.00 0.00 0.00 27 1001.5
20260830131555 85 51 2.0 0.0 0.00 0.00 0.00 27 1001.2
20260830131025 85 113 1.0 0.0 0.00 0.00 0.00 27 1001.2
20260830130502 85 335 1.0 0.0 0.00 0.00 0.00 27 1001.0
20260830130046 85 207 1.0 0.0 0.00 0.00 0.00 27 1000.7
20260830125525 86 360 1.0 0.0 0.00 0.00 0.00 27 1000.5
20260830125006 85 360 1.0 0.0 0.00 0.00 0.00 27 1000.5
20260830124550 85 360 2.0 0.0 0.00 0.00 0.00 27 1000.5
20260830124031 85 360 3.0 0.0 0.00 0.00 0.00 27 1000.6
20260830123509 86 360 3.0 0.0 0.00 0.00 0.00 27 1000.4
20260830123052 85 360 3.0 0.0 0.00 0.00 0.00 27 1000.4
20260830122532 86 360 3.0 0.0 0.00 0.00 0.00 26 1000.3
20260830122010 86 360 2.0 0.0 0.00 0.00 0.00 26 1000.3
20260830121557 86 360 2.0 0.0 0.00 0.00 0.00 26 1000.2
20260830121041 86 360 1.0 0.0 0.00 0.00 0.00 27 1000.1
20260830120524 86 360 2.0 0.0 0.00 0.00 0.00 26 1000.0
20260830120004 86 360 3.0 0.0 0.00 0.00 0.00 26 1000.0
20260830115550 86 360 2.0 0.0 0.00 0.00 0.00 26 999.9
20260830115032 86 360 2.0 0.0 0.00 0.00 0.00 25 1000.0
20260830114514 86 360 1.0 0.0 0.00 0.00 0.00 25 1000.0
20260830114100 86 360 1.0 0.0 0.00 0.00 0.00 25 1000.0
20260830113543 86 360 1.0 0.0 0.00 0.00 0.00 25 1000.0
20260830113023 86 360 1.0 0.0 0.00 0.00 0.00 24 999.9
20260830112505 86 360 1.0 0.0 0.00 0.00 0.00 25 999.9
20260830112055 86 360 1.0 0.0 0.00 0.00 0.00 25 999.9
20260830111536 86 360 0.0 0.0 0.00 0.00 0.00 24 1000.0
20260830111016 86 360 0.0 0.0 0.00 0.00 0.00 23 999.9